Culiacan, Mexico

7:12 PM MST on December 15, 2017 (GMT -0700)
Culiacan International

Weather History for MMCL - February, 2013

Change the Weather History Date:

Sunday, February 3, 2013

  Actual Average Record
Temperature  
Mean Temperature 70 °F -  
Max Temperature 86 °F 81 °F 91 °F (2001)
Min Temperature 53 °F 53 °F 41 °F (2016)
Cooling Degree Days 4    
Growing Degree Days 20 (Base 50)    
Moisture  
Dew Point 59 °F    
Average Humidity 70    
Maximum Humidity 94    
Minimum Humidity 36    
Precipitation  
Precipitation 0.00 in - - ()
Sea Level Pressure  
Sea Level Pressure 29.96 in    
Wind  
Wind Speed 2 mph ()    
Max Wind Speed 12 mph    
Max Gust Speed -    
Visibility 9.5 miles    
Events      
Averages and records for this station are not official NWS values.
T = Trace of Precipitation, MM = Missing Value Source: Averaged Metar Reports

Daily Weather History Graph

Daily Weather History Graph

Search for Another Location

Airport or City:

Trip Planner

Search our weather history database for the weather conditions in past years. The results will help you decide how hot, cold, wet, or windy it might be!

Date:

Astronomy

Feb. 03, 2013 Rise Set
Actual Time 6:51 AM MST 5:56 PM MST
Civil Twilight 6:27 AM MST 6:20 PM MST
Nautical Twilight 6:00 AM MST 6:47 PM MST
Astronomical Twilight 5:33 AM MST 7:14 PM MST
Moon 12:20 AM MST (2/3) 11:40 AM MST (2/3)
Length of Visible Light 11h 53m
Length of Day
11h 05m
Waning Gibbous, 48% of the Moon is Illuminated
Feb 3
Waning Gibbous
Feb 10
New
Feb 17
First Quarter
Feb 25
Full
Mar 4
Last Quarter

Hourly Weather History & Observations

Time (MST) Temp. Heat Index Dew Point Humidity Pressure Visibility Wind Dir Wind Speed Gust Speed Precip Events Conditions
1:40 AM 56 °F - 55 °F 94% 30.01 in 6 mi SW 2.2 mph - -  
4:40 AM 55 °F - 54 °F 94% 30.00 in 6 mi SW 2.2 mph - -  
6:03 AM 57.2 °F - 51.8 °F 82% 29.95 in 10.0 mi Calm Calm - N/A   Partly Cloudy
6:40 AM 57.2 °F - 51.8 °F 82% 29.95 in 10.0 mi Calm Calm - N/A   Partly Cloudy
7:40 AM 54 °F - 52 °F 90% 30.01 in 10 mi SW 2.2 mph - -   Haze
7:43 AM 59.0 °F - 53.6 °F 82% 30.01 in 10.0 mi Calm Calm - N/A   Mostly Cloudy
8:40 AM 62.6 °F - 57.2 °F 82% 29.98 in 10.0 mi Calm Calm - N/A   Mostly Cloudy
9:40 AM 69.8 °F - 60.8 °F 73% 29.99 in 10.0 mi Calm Calm - N/A   Mostly Cloudy
10:40 AM 75.2 °F - 62.6 °F 65% 29.97 in 10.0 mi Calm Calm - N/A   Mostly Cloudy
10:42 AM 69 °F - 62 °F 72% 30.03 in 10 mi ESE 2.2 mph - -   Haze
11:40 AM 78.8 °F - 62.6 °F 57% 29.97 in 10.0 mi Calm Calm - N/A   Mostly Cloudy
12:40 PM 78.8 °F - 62.6 °F 57% 29.96 in 10.0 mi SSW 5.8 mph - N/A   Mostly Cloudy
1:40 PM 73 °F - 64 °F 65% 29.98 in 10 mi SW 2.2 mph - -   Haze
1:46 PM 82.4 °F 82.9 °F 60.8 °F 48% 29.89 in 10.0 mi SSW 11.5 mph - N/A   Mostly Cloudy
2:41 PM 84.2 °F 83.8 °F 59.0 °F 42% 29.89 in 10.0 mi West 9.2 mph - N/A   Scattered Clouds
3:41 PM 86.0 °F 85.4 °F 59.0 °F 40% 29.88 in 10.0 mi SSW 5.8 mph - N/A   Scattered Clouds
4:40 PM 82 °F - 59 °F 36% 29.95 in 10 mi SSW 4.5 mph - -   Haze
4:40 PM 86.0 °F 85.4 °F 59.0 °F 40% 29.86 in 10.0 mi SW 8.1 mph - N/A   Mostly Cloudy
5:43 PM 77.0 °F - 66.2 °F 69% 29.91 in 10.0 mi West 5.8 mph - N/A   Scattered Clouds
6:41 PM 71.6 °F - 60.8 °F 69% 29.91 in 10.0 mi Calm Calm - N/A   Scattered Clouds
7:43 PM 68.0 °F - 62.6 °F 83% 29.90 in 10.0 mi Calm Calm - N/A   Scattered Clouds
8:41 PM 66.2 °F - 60.8 °F 83% 29.96 in 10.0 mi Calm Calm - N/A   Scattered Clouds
9:43 PM 66.2 °F - 60.8 °F 83% 29.96 in 10.0 mi Calm Calm - N/A   Scattered Clouds
10:45 PM 62 °F - 57 °F 80% 30.04 in 6 mi Calm Calm - -